Location: Potawatomi Wildlife Park
(41.2308°N, 86.1050°W)
Time: 19:48:01
(UTC-04:00)

Daily predictions for brighter satellites

Satellite Brightness Start Highest point End
(mag) Time Altitude Azimuth Time Altitude Azimuth Time Altitude Azimuth
SL-16 R/B 2.4 19:42:18 10° SSW 19:48:00 81° WNW 19:53:44 10° NNE
Cosmos 1408 Rocket 4.0 19:45:28 10° N 19:49:35 40° ENE 19:53:39 10° SSE
SKYMED 2 3.5 19:46:23 10° NNE 19:50:44 75° E 19:55:04 10° S
Cosmos 1766 3.3 19:52:20 10° S 19:56:18 84° E 20:00:19 10° N
CZ-4C R/B 4.1 19:55:05 10° W 19:59:51 29° NW 20:05:09 10° NNE
Helios 1A 4.1 19:57:38 10° ESE 20:01:04 25° ENE 20:04:30 10° NNE
IDEFIX/ARIANE 42P 3.9 19:57:07 10° S 20:02:07 45° W 20:07:10 10° NNW
Aureole 2 Rocket 4.2 19:59:03 10° SW 20:03:15 46° WNW 20:07:20 10° N
NOSS 3-2 (A) 4.0 19:59:09 10° SW 20:05:11 66° NW 20:11:49 10° NNE
Meteor 1-28 Rocket 3.3 20:04:31 10° NNE 20:08:09 50° E 20:11:46 10° S
Meteor 1-29 4.3 20:07:03 10° NE 20:09:45 20° E 20:12:25 10° SE
GPS 2-04 Rocket1 3.8 20:09:40 10° SW 20:12:35 26° SSE 20:15:05 13° ESE
NOAA 12 4.1 20:11:35 10° SSE 20:16:48 72° ENE 20:22:06 10° N
ASTEX 1 4.4 20:13:45 10° NNE 20:17:47 25° E 20:21:46 10° SE
SAR-Lupe-1 4.0 20:14:32 10° SSE 20:18:04 85° ENE 20:21:39 10° NNW
H-2A R/B 4.4 20:17:05 14° E 20:18:29 17° ENE 20:21:02 10° NNE
Cosmos 1943 Rocket 3.9 20:15:36 10° NNE 20:18:51 15° NE 20:21:11 12° ENE
Cosmos 1452 Rocket 3.6 20:15:04 10° NNW 20:20:21 83° WSW 20:25:36 10° SSE
Cosmos 1743 Rocket 3.9 20:16:11 10° N 20:20:25 42° ENE 20:24:34 10° SSE
Resurs 1-3 4.2 20:17:36 10° SE 20:21:38 37° ENE 20:25:41 10° N
Cosmos 1805 3.2 20:18:01 10° S 20:21:56 74° E 20:25:52 10° NNE
ALOS 3.1 20:20:34 10° SE 20:24:36 30° ENE 20:28:40 10° N
Cosmos 2369 Rocket 2.8 20:21:49 10° N 20:27:00 35° ENE 20:31:02 16° ESE
Cosmos 1943 3.7 20:23:34 10° S 20:28:38 35° ESE 20:33:41 10° NE
Resurs 01 Rocket 1.7 20:25:20 10° SSE 20:29:41 58° ENE 20:34:04 10° N
Helios 1B rocket 2.6 20:25:59 10° NNE 20:29:59 49° E 20:33:59 10° S
SL-8 R/B 3.6 20:25:29 10° WSW 20:30:15 84° SSE 20:34:18 15° ENE
CENTAUR R/B 2.8 20:25:08 10° S 20:30:45 44° ESE 20:37:01 10° NE
Gbstr 26 Del rocket 3.5 20:28:22 10° SSW 20:32:31 47° SE 20:36:27 16° ENE
Cosmos 1953 2.5 20:31:37 10° SSW 20:35:34 73° W 20:39:33 10° N
Cosmos 1603 3.8 20:30:03 10° SSW 20:35:47 87° WNW 20:41:35 10° NNE
ISS -3.4 20:32:33 10° SW 20:35:48 85° SE 20:37:50 21° NE
Meteor 2-12 Rocket 4.4 20:31:16 10° S 20:37:25 84° E 20:43:36 10° N
BREEZE-M DEB (TANK) 4.4 20:21:03 10° W 20:37:58 63° N 20:41:39 19° ENE
Cosmos 1420 Rocket 4.0 20:34:11 10° NNW 20:39:31 82° ENE 20:44:51 10° SSE
Cosmos 1733 3.7 20:36:45 10° SSE 20:40:19 36° E 20:43:52 10° NNE
ERBS 4.4 20:41:40 10° NNW 20:43:55 16° NNE 20:44:31 15° NE
Cosmos 1470 2.7 20:43:38 10° S 20:47:26 55° E 20:51:15 10° NNE
Nadezhda 4 Rocket 3.9 20:41:42 10° N 20:48:00 81° E 20:54:12 10° S
Cosmos 1674 2.7 20:44:22 10° N 20:48:14 62° E 20:51:28 14° SSE
GP-B 3.7 20:48:15 10° NNE 20:52:19 34° E 20:52:56 32° ESE
Cosmos 2058 4.4 20:49:35 10° NNE 20:51:47 20° NE 20:51:47 20° NE
Spot 2 Rocket 3.6 20:48:36 10° S 20:53:38 79° WSW 20:58:42 10° NNW
Abrixas 3.3 20:52:14 10° W 20:55:09 46° NNW 20:56:04 33° NNE
Cosmos 1092 Rocket 3.9 20:51:49 10° N 20:58:01 71° E 21:04:08 10° SSE
Cosmos 1048 Rocket 4.1 20:53:02 10° SSW 20:58:20 82° WNW 21:03:36 10° NNE
Cosmos-2242 4.2 20:56:38 10° SSW 21:00:49 45° WNW 21:05:03 10° N
Cosmos 2151 3.3 20:57:20 10° N 21:01:22 42° ENE 21:01:36 42° E
ATLAS 5 CENTAUR R/B 3.7 20:57:37 10° WSW 21:01:55 30° NW 21:06:34 10° NNE
Cosmos 1269 Rocket 4.5 20:58:42 10° SSW 21:03:55 63° WNW 21:09:11 10° NNE
Envisat 4.4 21:05:37 21° NE 21:05:37 21° NE 21:08:37 10° NNE
Cosmos 1655 Rocket 4.3 21:02:24 10° N 21:08:19 43° ENE 21:10:10 34° ESE
Cosmos 2026 Rocket 4.1 21:03:04 10° N 21:08:58 48° ENE 21:11:21 33° SE
Cosmos 1174 3.8 21:05:16 10° SSW 21:10:02 87° ESE 21:12:05 28° NNE
Cosmos 158 Rocket 3.7 21:05:17 10° SSW 21:10:09 77° ESE 21:15:02 10° NNE
Meteor 1-16 Rocket 4.2 21:06:13 10° SSE 21:11:18 49° E 21:16:25 10° NNE
FengYun 1-2 T 4.5 21:08:23 10° S 21:13:52 69° WSW 21:19:21 10° NNW
Cosmos 1634 Rocket 3.9 21:07:58 10° S 21:14:10 72° E 21:20:21 10° NNE
USA 215 3.1 21:09:20 12° NE 21:15:36 80° SE 21:22:08 10° SW
CZ-4B DEB 3.3 21:22:25 58° W 21:22:25 58° W 21:25:39 10° NNW
Meteor 1-11 4.2 21:18:11 10° N 21:23:55 61° ENE 21:25:16 48° SE
Cosmos 2195 Rocket 4.4 21:24:56 10° N 21:31:20 83° E 21:34:51 29° SSE
ERS-1 Rocket 3.7 21:35:50 37° NE 21:35:50 37° NE 21:39:24 10° N
FENGYUN 3A 4.2 21:32:29 13° S 21:37:10 57° W 21:42:29 10° NNW
CZ-2D R/B 4.2 21:41:51 44° WSW 21:42:12 46° W 21:45:58 10° NNW
Cosmos 1328 4.4 21:39:01 10° NNW 21:42:32 54° WNW 21:42:32 54° WNW
Cosmos 1110 Rocket 4.0 21:44:41 10° NNW 21:50:00 78° WSW 21:50:19 74° SW
H-2A R/B 4.2 21:52:21 34° WSW 21:52:31 35° W 21:56:06 10° NNW
ALOS 4.2 21:58:47 14° SSW 22:02:00 27° W 22:05:59 10° NW
Cosmos 1943 Rocket 2.3 21:57:46 10° NNW 22:02:44 70° NNW 22:02:44 70° NNW
Cosmos 2251 Rocket 4.1 22:02:53 10° SW 22:08:00 56° WNW 22:13:10 10° N
Cosmos 2369 Rocket 3.6 22:05:55 10° NW 22:10:57 34° WSW 22:12:52 27° SW
ISS 0.1 22:10:08 10° WNW 22:10:31 12° WNW 22:10:31 12° WNW
Gbstr 26 Del rocket 4.5 22:15:04 10° W 22:19:04 42° NW 22:19:04 42° NW
CENTAUR R/B 3.8 22:15:43 10° WSW 22:21:28 38° NW 22:27:56 10° NNE
USA 215 4.4 22:56:44 33° N 22:58:14 37° NNW 23:04:07 10° W
